QPF
0.03 0.04 0.03 0.02 0.03 0.02 0.02 0.02 0.02 0.02 0.02 0.02 0.02 0.02 0.02 0.02 0.02 0.02 0.02 0.02 0.03 0.03 0.04 0.06 0.06 0.07 0.08 0.07 0.07 0.08 0.09 0.09 0.08 0.07 0.06 0.06 0.05 0.06 0.06 0.08 0.07 0.05 0.05
0.01 0.02 0.02 0.02 0.02 0.02 0.02 0.02 0.02 0.02 0.02 0.02 0.02 0.02 0.02 0.02 0.02 0.02 0.02 0.02 0.03 0.02 0.03 0.05 0.06 0.06 0.08 0.09 0.10 0.12 0.10 0.08 0.07 0.07 0.07 0.06 0.05 0.06 0.09 0.11 0.09 0.08 0.06
0.01 0.01 0.01 0.01 0.02 0.02 0.02 0.02 0.02 0.02 0.02 0.02 0.02 0.02 0.02 0.02 0.02 0.01 0.01 0.01 0.02 0.02 0.02 0.03 0.04 0.05 0.05 0.07 0.08 0.08 0.08 0.06 0.07 0.08 0.08 0.07 0.06 0.07 0.09 0.10 0.09 0.09 0.06
0.02 0.03 0.02 0.03 0.03 0.03 0.03 0.03 0.02 0.02 0.03 0.03 0.02 0.01 0.01 0.01 0.00 0.00 0.00 0.01 0.01 0.01 0.02 0.03 0.03 0.03 0.03 0.05 0.06 0.06 0.06 0.05 0.06 0.08 0.08 0.08 0.07 0.07 0.07 0.09 0.10 0.08 0.06
0.03 0.07 0.05 0.04 0.04 0.04 0.04 0.04 0.03 0.02 0.01 0.01 0.01 0.00 0.00 0.00 0.00 0.00 0.00 0.00 0.01 0.01 0.02 0.03 0.04 0.04 0.04 0.04 0.04 0.05 0.05 0.05 0.05 0.07 0.07 0.07 0.08 0.06 0.07 0.08 0.08 0.07 0.06
0.03 0.06 0.05 0.04 0.04 0.03 0.02 0.02 0.01 0.01 0.01 0.01 0.00 0.00 0.00 0.00 0.00 0.00 0.00 0.00 0.01 0.01 0.01 0.02 0.03 0.04 0.04 0.04 0.03 0.03 0.03 0.03 0.04 0.06 0.06 0.07 0.07 0.07 0.07 0.07 0.06 0.06 0.06
0.01 0.03 0.03 0.03 0.02 0.01 0.01 0.00 0.01 0.01 0.01 0.01 0.01 0.01 0.01 0.00 0.00 0.00 0.00 0.01 0.02 0.02 0.02 0.02 0.02 0.02 0.04 0.04 0.05 0.03 0.02 0.02 0.02 0.04 0.05 0.05 0.05 0.06 0.07 0.08 0.06 0.05 0.04
0.01 0.01 0.02 0.02 0.01 0.01 0.00 0.00 0.01 0.01 0.01 0.01 0.01 0.01 0.01 0.00 0.00 0.01 0.01 0.03 0.04 0.04 0.03 0.02 0.02 0.02 0.03 0.04 0.04 0.04 0.04 0.03 0.03 0.03 0.05 0.05 0.05 0.05 0.07 0.07 0.06 0.05 0.04
0.01 0.01 0.01 0.01 0.01 0.01 0.00 0.00 0.01 0.01 0.01 0.01 0.01 0.01 0.01 0.02 0.02 0.03 0.03 0.03 0.03 0.02 0.02 0.02 0.01 0.01 0.02 0.02 0.03 0.04 0.05 0.05 0.04 0.04 0.04 0.04 0.04 0.04 0.05 0.05 0.06 0.06 0.05
0.01 0.01 0.01 0.01 0.01 0.01 0.01 0.01 0.01 0.02 0.02 0.02 0.02 0.02 0.03 0.03 0.03 0.03 0.03 0.02 0.02 0.02 0.02 0.01 0.01 0.01 0.01 0.02 0.03 0.04 0.04 0.05 0.05 0.04 0.03 0.03 0.03 0.03 0.03 0.03 0.03 0.04 0.05
0.01 0.01 0.01 0.01 0.01 0.00 0.01 0.01 0.01 0.02 0.02 0.02 0.02 0.02 0.01 0.01 0.01 0.01 0.02 0.02 0.01 0.02 0.02 0.01 0.01 0.01 0.01 0.01 0.02 0.03 0.03 0.04 0.03 0.03 0.03 0.03 0.02 0.03 0.03 0.02 0.02 0.03 0.03
0.01 0.01 0.01 0.01 0.01 0.01 0.01 0.01 0.02 0.02 0.02 0.01 0.01 0.01 0.01 0.01 0.01 0.01 0.01 0.01 0.02 0.02 0.01 0.01 0.01 0.01 0.00 0.00 0.01 0.02 0.02 0.03 0.04 0.03 0.02 0.02 0.02 0.02 0.02 0.03 0.03 0.03 0.03
0.01 0.01 0.01 0.01 0.01 0.01 0.01 0.02 0.02 0.02 0.01 0.01 0.01 0.01 0.00 0.00 0.00 0.01 0.01 0.01 0.01 0.02 0.02 0.01 0.01 0.00 0.00 0.01 0.01 0.01 0.02 0.03 0.04 0.04 0.03 0.02 0.02 0.03 0.03 0.03 0.03 0.03 0.03
0.01 0.01 0.01 0.01 0.02 0.02 0.02 0.02 0.02 0.01 0.01 0.01 0.01 0.01 0.01 0.00 0.01 0.01 0.01 0.01 0.01 0.01 0.02 0.01 0.01 0.00 0.00 0.01 0.01 0.01 0.02 0.04 0.04 0.03 0.03 0.02 0.02 0.02 0.03 0.04 0.04 0.05 0.05
0.01 0.01 0.01 0.01 0.02 0.03 0.03 0.02 0.01 0.01 0.01 0.01 0.00 0.01 0.01 0.01 0.01 0.01 0.01 0.01 0.01 0.02 0.03 0.02 0.01 0.01 0.01 0.01 0.01 0.02 0.03 0.04 0.04 0.03 0.02 0.03 0.03 0.02 0.02 0.03 0.04 0.06 0.07
0.01 0.01 0.01 0.02 0.02 0.03 0.02 0.01 0.01 0.00 0.00 0.00 0.00 0.00 0.01 0.01 0.01 0.01 0.01 0.01 0.01 0.01 0.03 0.02 0.01 0.01 0.01 0.01 0.01 0.01 0.02 0.02 0.03 0.03 0.03 0.03 0.03 0.02 0.02 0.03 0.04 0.05 0.06
0.01 0.02 0.02 0.02 0.03 0.04 0.01 0.01 0.01 0.01 0.00 0.00 0.00 0.00 0.00 0.00 0.00 0.00 0.00 0.00 0.00 0.01 0.02 0.01 0.01 0.01 0.01 0.01 0.01 0.01 0.02 0.02 0.02 0.03 0.03 0.03 0.03 0.03 0.03 0.03 0.04 0.05 0.05
0.01 0.02 0.02 0.02 0.03 0.02 0.01 0.01 0.01 0.01 0.01 0.01 0.00 0.00 0.00 0.00 0.00 0.00 0.00 0.00 0.00 0.00 0.01 0.01 0.01 0.01 0.01 0.01 0.01 0.02 0.02 0.03 0.03 0.03 0.02 0.02 0.02 0.02 0.03 0.03 0.04 0.06 0.07
0.02 0.02 0.02 0.02 0.02 0.01 0.01 0.01 0.01 0.01 0.01 0.01 0.00 0.00 0.00 0.00 0.00 0.00 0.00 0.00 0.00 0.00 0.01 0.01 0.01 0.01 0.02 0.02 0.02 0.02 0.03 0.03 0.03 0.02 0.02 0.02 0.02 0.02 0.03 0.03 0.04 0.05 0.06
0.03 0.02 0.02 0.02 0.01 0.01 0.01 0.01 0.01 0.01 0.01 0.01 0.01 0.00 0.00 0.00 0.00 0.00 0.00 0.00 0.00 0.00 0.01 0.01 0.01 0.02 0.02 0.03 0.02 0.02 0.02 0.03 0.02 0.02 0.02 0.02 0.02 0.02 0.03 0.03 0.04 0.05 0.05
0.02 0.01 0.01 0.01 0.01 0.01 0.01 0.01 0.00 0.01 0.01 0.01 0.01 0.00 0.00 0.01 0.01 0.01 0.00 0.00 0.00 0.00 0.01 0.02 0.02 0.03 0.03 0.03 0.03 0.02 0.02 0.02 0.03 0.02 0.02 0.02 0.02 0.03 0.03 0.02 0.03 0.04 0.04
0.01 0.01 0.01 0.01 0.01 0.01 0.01 0.01 0.01 0.01 0.01 0.01 0.01 0.01 0.01 0.01 0.01 0.01 0.00 0.00 0.00 0.00 0.01 0.02 0.02 0.03 0.03 0.03 0.03 0.02 0.02 0.02 0.03 0.02 0.02 0.02 0.02 0.02 0.02 0.02 0.02 0.03 0.03
0.01 0.01 0.01 0.01 0.01 0.01 0.01 0.02 0.01 0.01 0.00 0.00 0.00 0.01 0.01 0.01 0.00 0.00 0.00 0.00 0.00 0.00 0.01 0.02 0.02 0.03 0.03 0.03 0.02 0.01 0.01 0.01 0.02 0.02 0.02 0.02 0.02 0.02 0.01 0.01 0.02 0.02 0.02
0.01 0.01 0.01 0.01 0.02 0.02 0.02 0.02 0.01 0.01 0.01 0.00 0.00 0.00 0.00 0.00 0.00 0.00 0.00 0.00 0.00 0.01 0.01 0.02 0.02 0.02 0.02 0.01 0.01 0.00 0.00 0.00 0.01 0.02 0.02 0.02 0.02 0.02 0.01 0.01 0.02 0.02 0.02
0.01 0.01 0.01 0.02 0.02 0.02 0.02 0.02 0.02 0.01 0.01 0.01 0.01 0.01 0.01 0.01 0.01 0.01 0.01 0.01 0.01 0.01 0.01 0.01 0.02 0.02 0.01 0.00 0.00 0.00 0.00 0.00 0.00 0.01 0.02 0.02 0.02 0.02 0.02 0.01 0.02 0.02 0.03
0.01 0.01 0.01 0.01 0.01 0.01 0.02 0.02 0.02 0.02 0.02 0.01 0.01 0.01 0.01 0.01 0.01 0.01 0.01 0.01 0.01 0.01 0.01 0.01 0.02 0.01 0.01 0.00 0.00 0.00 0.00 0.00 0.00 0.00 0.01 0.01 0.01 0.02 0.02 0.03 0.03 0.03 0.02
MSLP
1010.64 1010.13 1009.74 1009.50 1009.40 1009.43 1009.57 1009.78 1010.04 1010.32 1010.58 1010.81 1010.99 1011.12 1011.17 1011.16 1011.08 1010.95 1010.77 1010.56 1010.34 1010.10 1009.87 1009.63 1009.38 1009.10 1008.78 1008.40 1007.95 1007.44 1006.88 1006.27 1005.65 1005.03 1004.44 1003.89 1003.37 1002.88 1002.40 1001.92 1001.41 1000.88 1000.32
1010.64 1010.06 1009.62 1009.34 1009.22 1009.26 1009.43 1009.69 1010.00 1010.34 1010.66 1010.93 1011.14 1011.27 1011.31 1011.27 1011.14 1010.96 1010.72 1010.44 1010.15 1009.85 1009.56 1009.27 1008.97 1008.66 1008.33 1007.94 1007.51 1007.02 1006.48 1005.91 1005.31 1004.70 1004.10 1003.51 1002.92 1002.34 1001.74 1001.12 1000.47 999.80 999.11
1010.72 1010.08 1009.59 1009.28 1009.15 1009.19 1009.37 1009.66 1010.01 1010.38 1010.73 1011.03 1011.25 1011.38 1011.40 1011.33 1011.16 1010.92 1010.62 1010.29 1009.93 1009.58 1009.23 1008.90 1008.56 1008.23 1007.88 1007.49 1007.07 1006.60 1006.10 1005.55 1004.98 1004.39 1003.78 1003.16 1002.53 1001.87 1001.18 1000.45 999.68 998.89 998.09
1010.87 1010.18 1009.65 1009.30 1009.16 1009.19 1009.38 1009.67 1010.04 1010.42 1010.78 1011.09 1011.30 1011.42 1011.42 1011.32 1011.12 1010.83 1010.49 1010.10 1009.70 1009.30 1008.90 1008.53 1008.16 1007.80 1007.43 1007.04 1006.63 1006.18 1005.69 1005.17 1004.62 1004.05 1003.45 1002.82 1002.16 1001.46 1000.71 999.91 999.07 998.20 997.32
1011.05 1010.33 1009.77 1009.41 1009.23 1009.25 1009.41 1009.69 1010.04 1010.41 1010.76 1011.05 1011.26 1011.35 1011.34 1011.21 1010.98 1010.67 1010.29 1009.87 1009.44 1009.00 1008.57 1008.16 1007.76 1007.37 1006.98 1006.57 1006.15 1005.69 1005.21 1004.70 1004.17 1003.61 1003.03 1002.42 1001.76 1001.06 1000.31 999.49 998.62 997.71 996.79
1011.26 1010.52 1009.94 1009.55 1009.35 1009.33 1009.45 1009.68 1009.98 1010.31 1010.63 1010.89 1011.07 1011.15 1011.12 1010.98 1010.74 1010.42 1010.03 1009.59 1009.14 1008.67 1008.22 1007.77 1007.34 1006.91 1006.48 1006.04 1005.58 1005.11 1004.61 1004.10 1003.58 1003.03 1002.48 1001.89 1001.28 1000.61 999.89 999.11 998.26 997.37 996.46
1011.47 1010.73 1010.14 1009.73 1009.48 1009.40 1009.45 1009.61 1009.84 1010.11 1010.37 1010.59 1010.74 1010.80 1010.76 1010.63 1010.39 1010.08 1009.69 1009.26 1008.79 1008.31 1007.83 1007.34 1006.87 1006.39 1005.91 1005.42 1004.92 1004.41 1003.88 1003.35 1002.82 1002.29 1001.75 1001.21 1000.65 1000.05 999.40 998.69 997.92 997.09 996.22
1011.70 1010.97 1010.37 1009.91 1009.61 1009.45 1009.41 1009.48 1009.62 1009.80 1009.99 1010.16 1010.28 1010.33 1010.30 1010.18 1009.97 1009.67 1009.30 1008.88 1008.41 1007.92 1007.41 1006.89 1006.36 1005.83 1005.29 1004.74 1004.17 1003.61 1003.04 1002.48 1001.93 1001.40 1000.89 1000.38 999.88 999.36 998.80 998.19 997.52 996.78 996.00
1011.92 1011.20 1010.59 1010.10 1009.73 1009.48 1009.33 1009.29 1009.32 1009.41 1009.53 1009.65 1009.75 1009.80 1009.78 1009.69 1009.51 1009.25 1008.90 1008.49 1008.02 1007.52 1006.98 1006.42 1005.84 1005.25 1004.65 1004.03 1003.40 1002.78 1002.16 1001.56 1000.99 1000.45 999.95 999.48 999.02 998.57 998.10 997.59 997.02 996.40 995.72
1012.14 1011.44 1010.81 1010.27 1009.82 1009.47 1009.22 1009.07 1009.00 1009.00 1009.05 1009.14 1009.22 1009.28 1009.29 1009.23 1009.09 1008.86 1008.54 1008.14 1007.67 1007.14 1006.57 1005.97 1005.34 1004.70 1004.04 1003.36 1002.68 1002.01 1001.35 1000.71 1000.11 999.55 999.05 998.59 998.17 997.76 997.35 996.92 996.45 995.94 995.37
1012.35 1011.66 1011.01 1010.42 1009.89 1009.45 1009.10 1008.84 1008.68 1008.61 1008.61 1008.67 1008.75 1008.83 1008.87 1008.85 1008.74 1008.54 1008.24 1007.85 1007.37 1006.82 1006.21 1005.57 1004.90 1004.21 1003.50 1002.79 1002.08 1001.37 1000.68 1000.02 999.40 998.82 998.30 997.83 997.41 997.02 996.64 996.26 995.86 995.43 994.96
1012.53 1011.83 1011.16 1010.52 1009.93 1009.40 1008.96 1008.62 1008.39 1008.27 1008.25 1008.30 1008.40 1008.50 1008.58 1008.59 1008.51 1008.33 1008.03 1007.62 1007.12 1006.53 1005.90 1005.22 1004.51 1003.79 1003.07 1002.35 1001.63 1000.92 1000.22 999.56 998.92 998.33 997.78 997.29 996.84 996.43 996.05 995.68 995.30 994.92 994.52
1012.65 1011.95 1011.25 1010.57 1009.91 1009.32 1008.82 1008.43 1008.16 1008.02 1007.99 1008.05 1008.17 1008.30 1008.41 1008.44 1008.37 1008.19 1007.88 1007.44 1006.90 1006.28 1005.60 1004.89 1004.17 1003.44 1002.72 1002.02 1001.33 1000.64 999.98 999.33 998.69 998.09 997.52 996.98 996.49 996.04 995.61 995.22 994.84 994.47 994.12
1012.71 1012.00 1011.27 1010.54 1009.85 1009.21 1008.67 1008.25 1007.97 1007.83 1007.81 1007.90 1008.05 1008.21 1008.33 1008.37 1008.30 1008.10 1007.75 1007.28 1006.69 1006.02 1005.30 1004.57 1003.83 1003.12 1002.43 1001.78 1001.14 1000.52 999.90 999.29 998.69 998.09 997.49 996.92 996.37 995.86 995.37 994.92 994.51 994.13 993.79
1012.71 1011.97 1011.21 1010.45 1009.73 1009.07 1008.51 1008.09 1007.81 1007.69 1007.70 1007.82 1008.00 1008.17 1008.31 1008.34 1008.25 1008.01 1007.62 1007.09 1006.44 1005.73 1004.98 1004.23 1003.50 1002.81 1002.17 1001.58 1001.03 1000.49 999.95 999.40 998.84 998.26 997.66 997.05 996.45 995.86 995.31 994.80 994.33 993.92 993.57
1012.67 1011.90 1011.10 1010.31 1009.55 1008.88 1008.33 1007.92 1007.67 1007.58 1007.62 1007.77 1007.97 1008.16 1008.29 1008.30 1008.18 1007.89 1007.45 1006.86 1006.17 1005.41 1004.63 1003.87 1003.16 1002.52 1001.94 1001.43 1000.96 1000.51 1000.06 999.59 999.08 998.53 997.93 997.30 996.66 996.02 995.39 994.82 994.29 993.85 993.48
1012.61 1011.79 1010.95 1010.13 1009.36 1008.68 1008.14 1007.75 1007.53 1007.47 1007.55 1007.72 1007.93 1008.13 1008.24 1008.24 1008.07 1007.74 1007.25 1006.62 1005.89 1005.10 1004.31 1003.56 1002.88 1002.28 1001.76 1001.33 1000.95 1000.59 1000.22 999.82 999.36 998.84 998.26 997.62 996.94 996.26 995.59 994.95 994.39 993.90 993.51
1012.57 1011.70 1010.82 1009.96 1009.17 1008.50 1007.96 1007.60 1007.40 1007.37 1007.47 1007.66 1007.87 1008.06 1008.17 1008.14 1007.95 1007.59 1007.06 1006.41 1005.66 1004.87 1004.09 1003.36 1002.70 1002.15 1001.70 1001.33 1001.01 1000.72 1000.42 1000.07 999.66 999.17 998.60 997.96 997.27 996.56 995.85 995.19 994.59 994.07 993.67
1012.59 1011.66 1010.74 1009.85 1009.05 1008.37 1007.84 1007.48 1007.30 1007.29 1007.40 1007.59 1007.80 1007.98 1008.07 1008.03 1007.83 1007.46 1006.93 1006.28 1005.55 1004.78 1004.03 1003.33 1002.72 1002.21 1001.80 1001.48 1001.21 1000.96 1000.69 1000.38 999.99 999.52 998.95 998.31 997.62 996.90 996.18 995.50 994.88 994.36 993.95
1012.69 1011.72 1010.75 1009.84 1009.02 1008.33 1007.80 1007.45 1007.27 1007.25 1007.36 1007.54 1007.74 1007.91 1007.99 1007.95 1007.75 1007.40 1006.90 1006.29 1005.60 1004.89 1004.19 1003.54 1002.97 1002.50 1002.12 1001.82 1001.56 1001.32 1001.05 1000.74 1000.35 999.88 999.32 998.68 997.99 997.27 996.56 995.88 995.27 994.76 994.35
1012.90 1011.89 1010.90 1009.97 1009.13 1008.43 1007.90 1007.53 1007.34 1007.30 1007.38 1007.54 1007.72 1007.87 1007.95 1007.91 1007.74 1007.43 1006.99 1006.45 1005.84 1005.20 1004.57 1003.98 1003.46 1003.02 1002.66 1002.35 1002.08 1001.81 1001.52 1001.18 1000.77 1000.27 999.70 999.07 998.38 997.68 996.99 996.34 995.76 995.26 994.88
1013.22 1012.19 1011.19 1010.25 1009.41 1008.70 1008.15 1007.76 1007.54 1007.46 1007.50 1007.61 1007.76 1007.89 1007.95 1007.93 1007.80 1007.55 1007.19 1006.73 1006.22 1005.67 1005.13 1004.61 1004.14 1003.73 1003.36 1003.03 1002.72 1002.41 1002.06 1001.67 1001.22 1000.69 1000.11 999.47 998.81 998.14 997.48 996.87 996.33 995.88 995.53
1013.64 1012.63 1011.65 1010.72 1009.88 1009.16 1008.59 1008.17 1007.89 1007.76 1007.73 1007.79 1007.88 1007.97 1008.02 1008.02 1007.92 1007.73 1007.46 1007.10 1006.69 1006.25 1005.80 1005.35 1004.93 1004.53 1004.15 1003.79 1003.43 1003.05 1002.64 1002.19 1001.69 1001.14 1000.54 999.91 999.27 998.64 998.03 997.48 997.00 996.61 996.31
1014.14 1013.18 1012.24 1011.33 1010.51 1009.79 1009.19 1008.73 1008.40 1008.19 1008.09 1008.06 1008.09 1008.13 1008.16 1008.15 1008.08 1007.95 1007.76 1007.50 1007.19 1006.85 1006.48 1006.10 1005.71 1005.33 1004.94 1004.55 1004.13 1003.69 1003.22 1002.71 1002.16 1001.58 1000.98 1000.37 999.77 999.19 998.65 998.17 997.77 997.44 997.20
1014.69 1013.80 1012.92 1012.06 1011.26 1010.55 1009.93 1009.43 1009.03 1008.74 1008.56 1008.44 1008.39 1008.37 1008.35 1008.33 1008.28 1008.19 1008.06 1007.88 1007.66 1007.40 1007.11 1006.79 1006.45 1006.07 1005.68 1005.25 1004.79 1004.30 1003.78 1003.22 1002.64 1002.05 1001.46 1000.87 1000.31 999.80 999.34 998.94 998.61 998.37 998.21
1015.22 1014.43 1013.63 1012.84 1012.09 1011.39 1010.76 1010.22 1009.77 1009.40 1009.12 1008.92 1008.78 1008.68 1008.62 1008.57 1008.51 1008.45 1008.36 1008.25 1008.09 1007.91 1007.68 1007.41 1007.09 1006.74 1006.34 1005.89 1005.40 1004.87 1004.32 1003.74 1003.15 1002.56 1001.98 1001.44 1000.93 1000.49 1000.10 999.79 999.55 999.38 999.29
Thickness
5675 5671 5668 5666 5664 5662 5660 5658 5655 5653 5650 5648 5647 5644 5642 5639 5636 5633 5632 5629 5627 5626 5624 5623 5622 5621 5621 5621 5621 5620 5619 5618 5618 5621 5622 5622 5620 5620 5620 5621 5621 5621 5622
5671 5668 5665 5663 5661 5658 5657 5654 5651 5648 5646 5645 5643 5640 5637 5635 5632 5629 5627 5625 5623 5621 5620 5619 5617 5617 5615 5614 5614 5614 5614 5613 5611 5611 5613 5614 5613 5613 5613 5612 5614 5615 5614
5668 5664 5661 5659 5656 5654 5652 5649 5647 5644 5642 5640 5638 5636 5633 5630 5628 5625 5623 5622 5619 5617 5615 5614 5613 5611 5609 5609 5608 5609 5609 5609 5607 5606 5607 5607 5607 5607 5606 5606 5607 5606 5608
5664 5661 5658 5655 5652 5650 5648 5645 5643 5640 5638 5635 5633 5631 5629 5627 5624 5621 5619 5617 5615 5613 5611 5609 5608 5606 5605 5604 5603 5602 5602 5601 5601 5601 5601 5601 5601 5602 5600 5599 5600 5601 5602
5661 5658 5655 5652 5650 5647 5644 5641 5638 5636 5634 5631 5629 5626 5624 5622 5619 5616 5614 5613 5610 5609 5607 5605 5604 5601 5598 5596 5597 5596 5596 5595 5596 5597 5596 5597 5596 5594 5594 5594 5594 5595 5597
5658 5656 5653 5650 5647 5643 5640 5637 5634 5631 5629 5627 5625 5623 5620 5618 5611 5607 5605 5607 5606 5604 5603 5601 5600 5597 5594 5590 5588 5587 5586 5588 5589 5589 5590 5589 5588 5589 5588 5587 5588 5588 5589
5655 5653 5650 5647 5644 5640 5638 5634 5631 5628 5626 5623 5622 5619 5617 5612 5605 5602 5600 5601 5602 5601 5599 5597 5596 5595 5590 5589 5587 5584 5583 5581 5580 5581 5583 5582 5582 5582 5580 5580 5581 5582 5583
5653 5650 5647 5644 5641 5637 5634 5631 5628 5625 5622 5620 5618 5616 5613 5609 5602 5599 5597 5599 5600 5599 5596 5593 5590 5588 5586 5582 5583 5583 5582 5581 5579 5578 5578 5577 5577 5575 5574 5574 5576 5577 5579
5652 5648 5645 5642 5638 5635 5631 5628 5625 5622 5620 5618 5616 5613 5610 5607 5600 5597 5594 5599 5599 5597 5595 5591 5588 5585 5579 5576 5578 5579 5578 5578 5576 5574 5572 5571 5569 5568 5568 5569 5572 5573 5576
5649 5646 5643 5639 5636 5632 5629 5626 5623 5620 5618 5617 5615 5612 5609 5606 5599 5595 5591 5598 5598 5597 5594 5591 5584 5579 5575 5571 5573 5574 5574 5574 5574 5573 5570 5569 5568 5568 5565 5564 5568 5570 5572
5647 5644 5640 5637 5634 5631 5627 5624 5622 5620 5618 5616 5614 5612 5609 5604 5599 5593 5589 5593 5594 5593 5592 5590 5585 5576 5571 5569 5567 5569 5567 5566 5569 5569 5569 5569 5568 5567 5566 5565 5565 5565 5567
5644 5641 5638 5635 5633 5631 5627 5623 5621 5619 5618 5616 5614 5612 5610 5605 5599 5593 5588 5586 5584 5587 5587 5585 5581 5573 5570 5567 5567 5565 5563 5562 5566 5567 5566 5566 5566 5566 5565 5564 5562 5561 5561
5641 5637 5635 5633 5631 5629 5626 5623 5621 5619 5618 5618 5615 5613 5610 5607 5601 5593 5589 5586 5583 5582 5583 5578 5574 5571 5569 5569 5566 5564 5563 5565 5565 5564 5564 5564 5563 5562 5562 5561 5560 5559 5558
5638 5635 5634 5632 5630 5627 5624 5623 5621 5619 5617 5615 5613 5610 5608 5605 5601 5596 5592 5589 5584 5582 5581 5578 5574 5571 5569 5568 5567 5567 5566 5565 5563 5562 5561 5560 5559 5559 5558 5558 5558 5558 5557
5635 5634 5633 5632 5630 5625 5623 5619 5618 5614 5611 5608 5608 5606 5603 5600 5592 5584 5584 5585 5583 5580 5576 5578 5577 5575 5573 5572 5571 5570 5567 5565 5562 5561 5559 5557 5556 5556 5556 5556 5554 5554 5554
5634 5632 5633 5631 5629 5627 5623 5619 5612 5609 5603 5599 5596 5594 5595 5589 5584 5581 5578 5576 5573 5571 5573 5576 5575 5574 5572 5572 5571 5569 5567 5564 5562 5559 5557 5555 5554 5554 5553 5553 5551 5549 5549
5632 5630 5631 5631 5629 5626 5623 5620 5617 5609 5601 5597 5594 5591 5588 5585 5582 5579 5577 5574 5572 5570 5575 5576 5574 5573 5572 5571 5570 5568 5565 5562 5559 5557 5555 5553 5552 5551 5550 5548 5547 5546 5546
5632 5629 5628 5628 5628 5626 5623 5620 5618 5614 5611 5607 5598 5591 5587 5584 5581 5578 5576 5574 5579 5576 5577 5576 5574 5572 5571 5569 5567 5564 5562 5560 5558 5556 5553 5551 5550 5549 5547 5546 5544 5542 5543
5630 5629 5627 5626 5625 5624 5622 5619 5617 5613 5610 5608 5606 5598 5589 5586 5581 5578 5576 5580 5582 5580 5578 5576 5573 5571 5568 5566 5564 5562 5560 5558 5555 5553 5551 5549 5548 5546 5545 5544 5543 5539 5537
5627 5623 5621 5623 5624 5622 5620 5618 5616 5612 5609 5607 5605 5600 5596 5592 5591 5587 5583 5582 5581 5579 5576 5574 5571 5567 5565 5564 5562 5560 5557 5555 5553 5550 5549 5547 5546 5544 5543 5541 5540 5539 5538
5627 5624 5616 5620 5621 5620 5618 5616 5613 5610 5608 5606 5604 5599 5590 5593 5591 5588 5585 5582 5579 5576 5573 5570 5567 5565 5562 5560 5558 5556 5553 5551 5549 5547 5546 5544 5543 5541 5540 5539 5537 5536 5535
5623 5623 5620 5619 5618 5616 5614 5613 5611 5609 5607 5604 5602 5599 5589 5590 5590 5587 5583 5580 5576 5573 5570 5566 5564 5562 5559 5557 5554 5552 5550 5547 5545 5542 5540 5540 5539 5538 5537 5536 5535 5533 5531
5619 5619 5618 5616 5614 5609 5609 5608 5607 5607 5605 5603 5601 5598 5595 5591 5589 5585 5582 5578 5574 5570 5567 5563 5560 5558 5555 5553 5551 5549 5546 5542 5539 5536 5535 5535 5535 5535 5534 5533 5531 5530 5530
5617 5615 5614 5613 5610 5610 5609 5607 5606 5605 5603 5601 5598 5595 5592 5589 5587 5583 5580 5576 5572 5569 5565 5561 5557 5554 5551 5548 5546 5543 5538 5533 5530 5531 5531 5531 5531 5531 5531 5531 5530 5528 5527
5615 5613 5612 5610 5609 5608 5607 5605 5604 5602 5600 5598 5595 5592 5590 5588 5585 5582 5578 5574 5571 5567 5563 5560 5556 5552 5548 5545 5541 5537 5531 5527 5525 5524 5525 5527 5528 5528 5528 5528 5527 5525 5523
5612 5610 5610 5609 5608 5607 5605 5603 5602 5600 5598 5596 5593 5590 5588 5585 5582 5579 5576 5572 5569 5566 5562 5559 5554 5550 5546 5542 5536 5531 5527 5524 5522 5520 5521 5523 5524 5524 5524 5524 5523 5522 5519